Temp
15 16 16 16 17 17 17 17 18 18 19 19 19 20 20 20 20 21 20 20 20 20 20 19 20 20 21 20 20 20 24 24 23 23 23 20 20 18 17 18 16 16 17 14 12
16 16 16 16 16 17 17 17 18 18 19 19 19 20 20 20 21 20 20 20 20 20 20 21 21 21 22 21 21 22 24 23 22 22 22 20 20 19 18 19 18 16 13 13 11
15 16 16 16 16 17 17 17 18 18 19 19 19 20 20 20 21 20 20 20 20 20 19 20 21 21 22 22 21 22 23 22 20 20 19 20 19 19 19 20 20 19 16 13 11
15 16 16 16 16 17 17 17 18 18 19 19 19 20 20 20 23 20 20 20 20 20 20 21 22 22 22 22 21 23 20 20 19 18 19 20 20 19 19 20 18 18 17 13 12
15 16 16 16 16 17 17 17 18 18 19 19 19 20 20 21 21 20 20 20 20 19 20 21 22 22 23 22 22 23 20 19 18 17 18 18 19 19 19 19 16 16 16 14 13
15 15 16 16 16 17 17 18 18 18 19 19 20 20 20 23 20 20 20 20 19 19 20 21 21 21 21 21 22 20 20 20 18 19 18 18 20 16 20 19 17 15 15 15 14
15 15 16 16 16 17 17 18 18 18 19 19 20 20 21 20 20 19 19 20 19 19 20 19 20 21 21 21 19 20 21 21 20 20 20 17 19 19 19 18 18 16 16 16 15
14 15 16 16 16 17 17 18 18 19 19 19 20 20 21 20 19 19 19 19 19 19 19 19 19 19 20 19 20 22 22 24 21 20 18 18 23 22 20 18 19 18 18 16 15
14 15 15 16 16 17 17 18 18 18 19 19 19 20 21 19 19 19 18 19 19 19 19 19 19 20 19 23 24 23 25 24 23 20 20 19 22 22 19 18 19 19 19 17 16
14 15 15 16 16 17 17 18 18 18 19 19 19 20 19 20 19 19 19 19 19 19 20 20 21 23 24 25 24 23 24 24 23 22 20 20 21 23 21 19 19 20 20 18 16
14 14 15 16 16 17 17 17 18 18 18 20 20 20 19 18 19 19 19 19 19 20 23 22 23 24 23 22 22 22 22 23 24 21 18 21 22 24 23 21 19 19 20 19 18
15 15 15 15 16 17 17 18 19 18 20 19 18 19 18 19 20 19 19 20 21 23 22 23 24 21 20 20 20 22 22 24 23 20 18 22 22 24 22 22 22 19 20 20 19
15 15 15 15 16 16 16 17 19 19 22 19 19 19 19 19 20 20 19 20 22 22 23 23 21 19 20 21 21 23 21 21 20 21 22 20 24 24 21 19 18 18 19 20 19
15 16 15 15 16 16 16 18 18 19 23 21 20 19 18 19 20 18 18 19 21 22 22 22 19 20 20 21 20 21 19 18 19 20 23 22 25 26 25 23 20 19 18 19 19
14 16 15 15 15 16 17 18 18 18 22 21 19 18 18 20 19 18 18 19 22 22 21 20 20 20 20 19 19 20 17 18 18 19 21 22 23 26 25 24 24 22 21 19 19
14 16 15 15 16 16 17 18 18 21 22 19 19 19 20 19 19 18 19 18 18 20 21 20 17 19 19 18 17 17 18 20 19 20 22 21 22 27 26 24 24 22 21 19 19
14 15 14 15 15 17 17 17 21 22 21 19 19 19 21 20 20 20 20 20 21 20 21 20 19 17 16 18 18 19 21 23 23 23 24 20 22 25 25 24 23 22 22 20 19
14 14 13 15 15 16 17 20 20 23 23 20 20 20 20 21 21 20 21 21 21 21 22 22 21 18 16 18 18 19 19 22 20 22 23 19 21 25 23 22 21 20 20 19 19
13 12 13 14 16 16 18 20 24 24 23 20 20 20 21 20 20 20 21 23 23 21 22 23 21 16 15 16 16 19 21 18 20 20 20 24 25 25 23 23 21 20 19 19 19
11 11 13 14 15 15 19 21 23 20 20 21 22 22 22 21 20 21 22 22 21 20 20 22 21 17 15 15 15 17 18 20 21 19 20 25 24 25 25 24 22 21 20 20 20
10 14 13 14 14 16 19 22 22 19 19 20 22 21 23 22 22 22 23 19 20 18 19 21 21 16 15 17 20 17 19 19 19 20 21 21 24 25 25 24 23 23 22 21 20
13 16 13 13 16 18 20 22 18 19 18 19 20 22 22 22 21 22 23 21 18 17 19 20 21 21 19 15 15 17 19 20 20 20 20 19 20 24 24 23 21 21 21 21 20
14 14 11 12 17 19 19 19 18 19 19 19 20 21 21 21 21 22 21 14 15 17 19 19 20 21 18 16 15 16 18 19 19 18 18 19 22 23 22 21 22 21 20 21 20
14 15 12 11 17 19 19 18 18 17 19 20 21 20 20 21 21 20 20 15 14 17 16 17 21 22 22 21 20 17 17 17 19 19 19 20 21 23 23 23 23 22 21 21 20
12 17 15 14 16 17 20 20 19 18 17 19 19 20 21 21 20 20 21 15 14 15 16 19 19 21 21 20 19 19 19 17 16 19 19 21 21 23 23 22 21 21 20 19 19
13 14 13 17 16 17 16 19 19 20 19 19 20 20 21 22 22 21 20 20 20 15 17 17 19 18 19 19 18 18 19 19 19 18 18 19 20 22 21 21 21 20 20 19 18
10 12 14 14 17 17 18 18 19 20 19 21 20 21 20 21 22 20 21 20 21 19 18 18 18 18 19 17 17 17 19 19 18 20 20 18 21 22 21 20 20 19 18 18 18
Height
1557 1558 1558 1558 1558 1558 1558 1559 1559 1560 1560 1560 1560 1560 1560 1561 1561 1561 1561 1560 1559 1559 1559 1559 1559 1558 1558 1557 1556 1555 1547 1546 1550 1552 1553 1562 1564 1568 1569 1570 1572 1573 1574 1576 1576
1558 1558 1558 1558 1558 1558 1559 1559 1560 1560 1560 1560 1560 1560 1561 1561 1562 1563 1562 1560 1559 1559 1560 1560 1559 1558 1557 1557 1557 1553 1546 1551 1556 1556 1556 1563 1563 1566 1569 1568 1571 1573 1573 1575 1575
1558 1558 1558 1558 1558 1559 1559 1560 1560 1560 1561 1561 1561 1561 1561 1562 1563 1564 1561 1560 1560 1560 1561 1561 1560 1559 1557 1557 1557 1556 1552 1557 1560 1561 1562 1562 1564 1566 1566 1564 1565 1567 1571 1573 1574
1558 1558 1558 1558 1558 1559 1559 1560 1560 1560 1561 1561 1561 1561 1562 1563 1561 1562 1561 1560 1560 1561 1562 1562 1560 1558 1557 1556 1558 1554 1560 1560 1562 1563 1563 1562 1563 1563 1564 1563 1564 1566 1568 1571 1573
1558 1558 1558 1558 1558 1559 1559 1559 1560 1560 1561 1561 1562 1562 1563 1563 1564 1562 1561 1561 1561 1561 1563 1562 1559 1559 1556 1558 1558 1555 1560 1563 1564 1564 1564 1564 1563 1563 1560 1561 1563 1565 1568 1569 1571
1558 1558 1558 1558 1558 1558 1558 1559 1559 1560 1560 1561 1562 1562 1563 1562 1563 1562 1561 1562 1562 1563 1563 1562 1561 1561 1560 1560 1558 1561 1561 1562 1563 1563 1564 1563 1561 1563 1555 1557 1562 1564 1563 1568 1572
1557 1557 1557 1557 1558 1558 1558 1558 1559 1560 1560 1561 1562 1562 1564 1565 1563 1563 1562 1562 1562 1563 1563 1562 1562 1562 1562 1561 1562 1562 1559 1560 1561 1561 1561 1563 1557 1553 1554 1556 1559 1559 1564 1569 1569
1556 1556 1556 1557 1557 1557 1557 1558 1559 1559 1560 1561 1563 1563 1563 1563 1563 1563 1563 1563 1563 1563 1562 1562 1562 1563 1562 1563 1561 1558 1556 1550 1557 1560 1561 1563 1546 1545 1550 1553 1554 1558 1562 1565 1563
1555 1555 1556 1556 1556 1557 1557 1558 1559 1560 1561 1562 1564 1564 1563 1563 1564 1563 1564 1565 1564 1563 1563 1562 1563 1563 1563 1556 1552 1551 1549 1550 1550 1557 1558 1560 1547 1545 1551 1550 1552 1556 1558 1558 1559
1553 1554 1555 1555 1556 1556 1557 1558 1559 1560 1561 1562 1563 1566 1563 1564 1563 1563 1564 1564 1565 1565 1565 1564 1562 1556 1553 1549 1553 1555 1552 1548 1551 1552 1556 1554 1547 1543 1544 1546 1550 1551 1552 1553 1554
1550 1552 1553 1554 1555 1556 1558 1559 1563 1564 1561 1561 1561 1562 1562 1562 1563 1565 1564 1565 1565 1565 1559 1562 1558 1553 1557 1560 1560 1559 1556 1552 1544 1554 1557 1545 1538 1535 1535 1538 1544 1547 1546 1547 1550
1547 1550 1552 1553 1554 1555 1556 1559 1558 1559 1560 1560 1560 1561 1562 1563 1564 1565 1565 1566 1564 1558 1560 1560 1554 1561 1564 1564 1563 1559 1556 1546 1546 1555 1558 1543 1535 1528 1530 1529 1532 1539 1540 1542 1546
1543 1546 1549 1551 1553 1554 1556 1558 1557 1558 1556 1559 1560 1561 1562 1564 1563 1564 1565 1564 1562 1559 1558 1558 1562 1566 1565 1562 1562 1553 1559 1557 1561 1553 1543 1545 1525 1525 1531 1532 1532 1532 1535 1537 1539
1538 1543 1547 1550 1555 1554 1555 1556 1557 1558 1550 1554 1557 1559 1561 1562 1563 1562 1563 1566 1562 1559 1561 1559 1566 1565 1565 1563 1564 1560 1564 1564 1562 1558 1547 1544 1536 1519 1521 1525 1529 1530 1532 1533 1537
1534 1538 1544 1548 1548 1553 1554 1555 1557 1559 1556 1552 1556 1556 1558 1561 1562 1562 1563 1564 1560 1560 1563 1566 1565 1565 1565 1567 1567 1562 1567 1565 1563 1559 1553 1545 1546 1518 1519 1524 1524 1528 1530 1532 1534
1530 1534 1541 1546 1548 1550 1552 1555 1558 1558 1552 1552 1553 1554 1556 1558 1560 1562 1563 1564 1564 1563 1562 1564 1569 1569 1568 1569 1569 1568 1564 1557 1559 1555 1550 1548 1547 1515 1518 1523 1524 1528 1530 1531 1532
1527 1531 1536 1541 1548 1548 1552 1555 1555 1551 1542 1549 1548 1551 1550 1554 1557 1558 1559 1560 1557 1563 1560 1564 1565 1571 1572 1567 1567 1564 1554 1548 1548 1546 1542 1550 1547 1522 1519 1524 1527 1529 1530 1531 1531
1526 1531 1536 1538 1543 1546 1551 1554 1553 1532 1533 1541 1544 1548 1550 1551 1552 1555 1555 1555 1555 1557 1556 1555 1563 1568 1572 1569 1568 1564 1564 1559 1576 1559 1551 1553 1550 1522 1523 1527 1528 1529 1530 1531 1531
1527 1532 1535 1538 1541 1545 1550 1546 1525 1522 1529 1539 1545 1546 1547 1549 1551 1552 1550 1545 1544 1552 1554 1552 1560 1571 1572 1573 1573 1564 1560 1567 1565 1562 1564 1535 1523 1516 1523 1524 1526 1527 1529 1529 1530
1528 1533 1536 1536 1540 1544 1545 1532 1525 1530 1533 1535 1533 1533 1538 1544 1550 1548 1544 1542 1548 1551 1553 1548 1557 1568 1573 1574 1574 1570 1569 1564 1558 1574 1567 1530 1533 1526 1520 1521 1524 1526 1527 1528 1528
1528 1533 1531 1535 1540 1543 1532 1524 1525 1532 1533 1533 1528 1533 1528 1536 1539 1541 1538 1548 1548 1554 1555 1551 1554 1573 1574 1570 1562 1570 1565 1566 1565 1563 1565 1559 1530 1514 1517 1519 1522 1523 1524 1525 1525
1526 1525 1526 1532 1538 1532 1526 1523 1529 1530 1533 1532 1531 1528 1529 1532 1537 1535 1536 1541 1548 1551 1554 1554 1551 1556 1560 1569 1570 1567 1561 1559 1565 1566 1563 1565 1549 1517 1519 1521 1524 1524 1524 1523 1523
1520 1522 1524 1529 1524 1519 1523 1525 1528 1529 1528 1529 1529 1529 1530 1531 1537 1534 1537 1548 1549 1550 1551 1554 1553 1556 1564 1571 1571 1567 1561 1560 1562 1565 1568 1567 1534 1518 1521 1523 1521 1520 1520 1520 1519
1515 1518 1524 1525 1517 1514 1518 1521 1525 1526 1525 1526 1525 1528 1530 1530 1532 1535 1539 1549 1550 1550 1552 1553 1547 1544 1547 1549 1550 1562 1561 1561 1558 1561 1557 1545 1526 1517 1517 1516 1516 1515 1514 1514 1513
1503 1498 1501 1507 1511 1513 1510 1512 1515 1520 1525 1525 1525 1524 1524 1528 1531 1533 1533 1547 1551 1552 1552 1551 1549 1543 1542 1545 1550 1547 1548 1554 1558 1548 1551 1527 1528 1517 1515 1515 1514 1513 1511 1509 1507
1493 1494 1497 1495 1502 1509 1506 1504 1507 1509 1515 1517 1518 1520 1521 1521 1523 1525 1531 1535 1536 1550 1550 1550 1546 1548 1546 1544 1548 1546 1542 1540 1541 1544 1541 1534 1526 1517 1516 1514 1511 1510 1507 1504 1502
1489 1487 1489 1491 1492 1498 1494 1497 1497 1503 1508 1507 1511 1514 1517 1517 1521 1526 1527 1529 1529 1537 1543 1546 1545 1549 1543 1548 1551 1550 1523 1525 1528 1524 1526 1533 1513 1510 1511 1511 1510 1508 1506 1503 1499
Wind_Speed
2 2 2 2 2 2 3 4 4 4 3 3 2 2 4 5 5 6 3 1 1 2 3 3 4 5 3 4 4 3 4 2 2 2 7 7 6 3 2 3 5 4 0 5 17
2 2 2 2 2 3 3 4 4 4 4 3 2 2 5 4 4 5 3 1 3 4 3 4 4 5 2 3 2 4 3 6 6 6 2 6 6 6 5 7 8 7 4 10 16
2 2 3 2 2 2 3 4 4 4 4 3 2 2 5 4 3 3 4 1 3 4 2 3 4 4 3 3 5 4 5 3 3 2 1 3 6 5 7 7 9 10 13 15 16
2 3 2 3 3 3 3 3 4 4 4 4 2 2 6 5 2 3 2 0 2 2 2 3 4 3 3 4 4 2 2 2 1 1 1 4 2 6 12 8 2 6 10 17 17
4 3 3 3 3 4 4 4 4 4 5 4 2 3 7 5 2 4 2 1 2 1 2 3 4 2 2 2 1 2 2 0 1 1 2 3 8 9 11 11 8 7 12 16 17
5 5 4 4 4 4 4 4 5 5 5 4 3 5 3 6 1 3 1 1 1 0 2 3 3 3 3 2 4 2 1 2 4 3 4 6 7 2 3 14 12 10 14 14 15
7 6 5 5 4 4 4 5 6 6 5 5 4 6 4 2 3 2 2 1 2 2 1 1 1 4 1 1 1 1 5 4 6 3 3 6 10 11 10 8 14 15 13 12 15
8 7 6 6 5 4 4 5 6 6 5 5 5 6 0 5 3 1 2 2 1 1 3 2 3 3 1 2 3 4 4 4 6 3 3 2 5 6 8 10 13 13 13 14 18
9 8 6 6 5 4 3 5 6 6 5 5 3 3 3 6 2 3 2 2 2 2 2 1 1 1 3 5 5 5 6 5 2 4 3 5 8 9 6 11 12 12 13 17 18
12 9 7 6 5 4 4 5 6 5 5 4 3 5 4 4 6 4 3 4 1 2 1 2 3 6 5 5 4 7 7 6 6 3 6 12 18 16 15 15 15 14 15 17 20
16 12 9 7 6 5 9 7 4 3 7 2 2 1 5 4 5 3 4 1 2 5 6 2 7 3 6 5 5 6 7 10 6 4 6 9 15 15 16 18 16 17 18 19 20
19 16 12 9 8 9 12 6 4 4 4 4 3 2 5 6 4 3 4 4 5 6 2 5 1 4 2 3 5 7 9 8 4 1 5 13 19 14 2 10 18 19 21 20 18
21 19 15 11 9 10 11 8 7 8 5 5 5 4 4 4 2 4 2 2 5 4 3 6 6 1 3 4 7 6 7 8 7 15 9 12 6 5 3 3 4 13 20 20 20
21 20 17 11 5 8 9 12 7 7 5 10 8 5 5 4 5 3 3 1 4 5 2 3 3 2 3 5 4 8 4 5 9 9 5 7 4 8 3 5 5 8 15 19 19
20 21 21 18 8 10 10 12 8 4 5 9 7 5 6 6 5 3 5 3 5 2 4 5 1 2 5 4 4 4 6 8 8 9 8 4 4 7 4 5 4 5 6 11 15
19 24 24 19 11 13 11 12 8 5 5 6 7 8 9 8 4 3 4 2 1 3 3 3 2 3 4 1 3 7 8 10 6 4 4 4 4 0 2 3 4 4 2 4 8
20 27 28 23 9 15 16 11 5 6 4 7 8 8 12 8 8 7 8 7 5 4 8 5 3 2 2 5 3 6 9 2 3 3 4 2 6 7 1 1 2 1 1 3 4
22 27 25 25 16 19 19 7 9 3 6 5 6 9 9 9 6 8 5 8 8 6 2 4 5 1 1 2 4 4 4 4 4 5 8 2 4 2 2 1 7 7 5 5 6
24 22 21 21 21 23 17 10 3 4 7 11 12 10 9 8 3 10 11 8 3 13 5 3 3 3 2 2 4 3 1 2 4 2 4 3 4 7 1 1 2 5 9 10 10
18 13 13 22 22 17 11 13 4 2 5 13 9 12 12 12 9 10 10 3 4 6 1 2 3 1 3 2 1 4 2 3 3 3 5 4 5 5 0 2 3 6 12 13 12
14 11 15 22 21 16 12 13 9 7 8 10 8 8 7 9 13 8 2 4 4 5 4 1 2 4 1 5 2 3 2 2 3 3 3 5 3 6 2 1 3 6 12 15 15
16 6 13 25 15 20 14 13 1 10 11 7 4 4 10 10 10 10 7 2 8 12 7 3 2 3 2 2 3 4 4 5 3 2 2 4 7 2 2 2 6 10 12 12 16
14 6 19 23 10 12 9 7 4 8 11 9 9 8 4 9 7 9 6 2 8 9 7 7 5 3 4 3 2 4 6 7 1 1 7 4 4 3 2 4 11 14 16 19 21
14 6 9 17 20 14 18 14 12 13 8 9 5 8 8 8 5 8 8 3 6 8 3 6 4 7 5 4 2 4 8 10 10 5 7 13 21 21 15 15 22 22 20 21 20
10 8 15 10 20 16 18 11 18 10 10 14 7 13 12 8 10 7 9 6 5 6 6 4 6 9 10 7 9 12 12 14 17 18 12 22 19 20 19 19 25 20 18 18 20
8 7 8 10 29 25 14 16 18 20 14 11 14 15 14 11 9 9 12 9 6 10 8 5 3 2 9 9 10 17 17 17 19 21 22 24 26 22 23 16 21 20 18 17 18
14 12 8 11 18 17 19 19 20 19 16 14 19 11 16 17 5 1 8 3 6 10 13 7 5 3 3 2 3 10 17 18 12 14 17 17 17 13 14 17 16 17 16 16 17
Wind_Direction
148 155 166 159 163 173 171 174 175 169 172 161 128 117 136 113 69 43 22 72 167 111 85 337 346 343 10 22 13 308 249 148 96 190 104 155 179 171 197 177 188 187 341 128 165
190 191 187 185 181 178 180 183 183 181 184 176 161 149 163 144 101 48 24 95 160 148 25 340 350 351 39 16 8 318 285 44 18 41 71 173 232 176 207 204 210 198 165 148 168
206 215 221 214 208 204 200 193 193 193 192 191 193 177 172 163 252 15 349 63 161 167 322 337 339 350 20 22 11 17 19 111 77 57 336 204 224 210 228 236 236 211 199 176 177
235 226 233 240 233 227 217 202 200 200 199 205 204 186 168 165 345 318 327 65 162 175 314 314 332 351 4 35 18 206 84 15 126 72 221 216 243 228 234 247 135 193 187 182 189
245 250 245 244 244 239 231 212 204 203 202 206 199 169 156 214 80 324 329 53 124 102 326 323 333 316 16 35 281 14 130 121 111 192 251 272 252 265 257 233 214 182 175 187 194
236 244 252 251 250 243 236 224 206 204 204 192 181 173 213 251 258 357 26 106 173 74 329 340 3 20 67 21 332 65 182 178 204 215 245 261 266 264 230 221 205 192 195 195 198
238 241 248 256 260 253 237 226 208 203 203 186 177 180 235 118 199 47 51 139 156 164 241 63 20 342 320 187 131 222 259 202 212 219 284 296 247 232 237 184 200 210 206 200 206
236 238 244 251 257 256 240 219 202 200 199 190 172 162 24 209 184 73 76 61 130 189 198 171 93 98 357 147 219 257 243 287 128 206 148 265 327 173 185 192 210 209 207 205 210
238 238 240 245 248 247 230 199 191 192 189 180 161 224 162 191 165 196 139 188 117 92 135 118 36 162 178 248 215 206 328 344 145 190 293 232 301 111 192 219 222 213 209 211 212
238 235 234 234 234 225 191 168 167 175 172 164 209 229 179 189 195 185 188 171 216 171 206 243 240 249 217 280 352 337 327 332 324 112 250 267 267 271 234 222 231 224 218 218 220
234 231 226 223 215 195 162 136 150 184 194 297 53 55 150 163 165 184 205 232 222 240 259 206 263 3 23 11 348 316 303 303 326 70 296 268 279 280 265 226 225 231 225 223 225
228 226 221 216 209 193 181 199 235 155 188 226 205 142 150 168 175 189 182 232 221 250 234 219 336 51 29 328 303 295 298 325 320 63 293 301 295 293 298 253 234 223 227 225 223
224 221 216 212 210 196 188 225 194 174 242 181 181 174 162 179 213 163 200 245 268 245 260 302 58 69 294 289 299 283 309 339 318 318 260 297 259 165 162 226 230 225 221 223 222
221 211 205 201 211 204 207 199 192 188 251 157 188 181 176 174 198 190 198 238 216 285 270 333 85 271 280 292 321 300 23 314 307 322 327 1 312 119 92 117 203 194 210 219 220
216 202 194 185 178 186 207 190 176 198 259 140 148 173 179 206 130 172 185 215 270 174 255 73 189 293 287 17 337 349 325 304 298 288 301 149 263 112 161 103 101 118 188 214 221
209 191 186 188 197 204 183 168 160 228 239 157 151 177 174 192 164 132 178 167 123 234 235 38 73 346 11 319 294 309 280 247 272 264 225 81 349 145 107 86 119 114 131 175 211
198 183 182 182 186 179 166 155 206 246 137 160 186 181 200 176 185 199 187 189 216 208 202 163 148 103 322 277 215 270 294 282 220 219 23 109 291 294 183 193 23 306 151 153 166
185 180 183 181 183 172 165 200 237 359 173 103 164 171 186 167 209 189 204 227 211 232 273 251 178 232 15 340 332 346 327 360 316 345 318 144 234 62 21 169 292 260 223 207 187
172 179 185 191 179 174 190 211 242 174 146 156 152 181 189 198 246 198 218 241 220 203 234 198 138 138 50 334 314 68 305 22 285 180 271 271 246 239 271 187 288 217 211 219 207
164 176 193 190 180 179 213 232 212 166 146 170 193 204 189 186 195 199 182 173 194 213 251 115 195 184 102 255 107 305 356 231 188 328 314 293 296 279 306 312 173 208 221 225 222
162 181 203 184 177 195 215 218 213 203 178 187 205 183 217 173 205 192 171 133 181 162 220 238 277 108 200 200 116 166 202 231 312 288 306 310 280 30 328 306 284 266 235 232 235
174 203 192 176 185 208 220 216 184 187 199 212 256 240 195 187 197 202 203 120 159 154 172 163 298 213 76 119 323 304 300 269 289 177 258 277 275 94 29 353 317 296 293 260 258
181 166 175 174 205 206 199 216 237 195 198 189 203 213 186 185 197 201 186 85 163 174 167 176 202 202 184 182 190 234 207 235 248 290 244 276 256 102 137 249 286 283 279 276 276
165 164 169 201 224 229 208 216 211 213 226 208 195 177 178 198 185 180 172 142 182 186 183 182 222 256 282 8 111 195 207 218 218 227 251 235 280 293 294 308 317 315 308 299 293
205 200 184 189 214 214 212 210 207 186 217 205 201 215 193 197 188 201 164 139 169 195 191 217 243 239 259 269 253 263 255 209 221 235 251 273 281 286 303 317 313 315 313 303 293
200 175 182 201 201 203 205 214 212 204 177 201 225 202 210 219 201 200 184 179 180 179 193 198 241 226 260 236 257 276 265 252 240 235 254 264 275 285 290 295 310 311 312 307 305
216 194 182 181 190 191 207 214 207 206 207 216 205 203 211 221 220 20 183 211 150 169 189 183 211 218 266 125 258 266 264 238 226 237 234 243 254 276 309 313 315 312 308 303 306